Hourly Weather Koziolek

Today, 22 October, Thursday

Time Temperature Precipitation Wind Pressure Humidity
00:00 +10°C° 0 mm 4 mps 748 mmHg 77%
01:00 +10°C° 0 mm 4 mps 748 mmHg 77%
02:00 +10°C° 0 mm 4 mps 748 mmHg 77%
03:00 +10°C° 0 mm 4 mps 748 mmHg 77%
04:00 +10°C° 0 mm 4 mps 748 mmHg 77%
05:00 +10°C° 0 mm 5 mps 748 mmHg 76%
06:00 +10°C° 0 mm 5 mps 748 mmHg 75%
07:00 +10°C° 0 mm 5 mps 749 mmHg 75%
08:00 +13°C° 0 mm 5 mps 749 mmHg 69%
09:00 +15°C° 0 mm 5 mps 749 mmHg 63%
10:00 +16°C° 0 mm 5 mps 750 mmHg 57%
11:00 +17°C° 0 mm 5 mps 750 mmHg 57%
12:00 +19°C° 0 mm 5 mps 750 mmHg 56%
13:00 +19°C° 0 mm 5 mps 750 mmHg 55%
14:00 +19°C° 0 mm 4 mps 750 mmHg 60%
15:00 +18°C° 0 mm 3 mps 750 mmHg 65%
16:00 +17°C° 0 mm 3 mps 749 mmHg 70%
17:00 +16°C° 0 mm 3 mps 750 mmHg 72%
18:00 +14°C° 0 mm 3 mps 750 mmHg 74%
19:00 +14°C° 0 mm 3 mps 750 mmHg 76%
20:00 +13°C° 0 mm 3 mps 750 mmHg 77%
21:00 +13°C° 0 mm 3 mps 750 mmHg 78%
22:00 +13°C° 0 mm 3 mps 750 mmHg 79%
23:00 +12°C° 0 mm 3 mps 750 mmHg 79%

Tomorrow, 23 October, Friday

Time Temperature Precipitation Wind Pressure Humidity
00:00 +12°C° 0 mm 3 mps 750 mmHg 79%
01:00 +12°C° 0 mm 3 mps 750 mmHg 80%
02:00 +12°C° 0 mm 3 mps 749 mmHg 80%
03:00 +11°C° 0 mm 3 mps 749 mmHg 81%
04:00 +11°C° 0 mm 3 mps 749 mmHg 82%
05:00 +11°C° 0 mm 3 mps 748 mmHg 81%
06:00 +11°C° 0 mm 3 mps 748 mmHg 81%
07:00 +11°C° 0 mm 4 mps 748 mmHg 81%
08:00 +13°C° 0 mm 4 mps 748 mmHg 77%
09:00 +14°C° 0 mm 4 mps 748 mmHg 73%
10:00 +15°C° 0 mm 4 mps 748 mmHg 70%
11:00 +17°C° 0 mm 4 mps 748 mmHg 68%
12:00 +17°C° 0 mm 3 mps 747 mmHg 67%
13:00 +18°C° 0 mm 3 mps 747 mmHg 66%
14:00 +17°C° 0 mm 3 mps 747 mmHg 69%
15:00 +17°C° 0 mm 2 mps 747 mmHg 72%
16:00 +16°C° 0 mm 2 mps 747 mmHg 75%
17:00 +16°C° 0 mm 2 mps 747 mmHg 76%
18:00 +15°C° 0 mm 2 mps 747 mmHg 77%
19:00 +15°C° 0 mm 2 mps 747 mmHg 78%
20:00 +15°C° 0.1 mm 1 mps 747 mmHg 79%
21:00 +15°C° 0.1 mm 1 mps 747 mmHg 80%
22:00 +14°C° 0.1 mm 1 mps 747 mmHg 82%
23:00 +14°C° 0 mm 1 mps 747 mmHg 82%

Day after tomorrow, 24 October, Saturday

Time Temperature Precipitation Wind Pressure Humidity
00:00 +14°C° 0 mm 1 mps 747 mmHg 81%
01:00 +14°C° 0 mm 1 mps 747 mmHg 81%
02:00 +14°C° 0.1 mm 2 mps 746 mmHg 81%
03:00 +14°C° 0.1 mm 2 mps 746 mmHg 82%
04:00 +13°C° 0.1 mm 3 mps 746 mmHg 82%
05:00 +12°C° 0.6 mm 3 mps 746 mmHg 85%
06:00 +12°C° 0.6 mm 3 mps 746 mmHg 88%
07:00 +12°C° 0.6 mm 3 mps 746 mmHg 91%
08:00 +12°C° 2.2 mm 3 mps 746 mmHg 93%
09:00 +12°C° 2.2 mm 3 mps 746 mmHg 94%
10:00 +12°C° 2.2 mm 4 mps 746 mmHg 95%
11:00 +13°C° 0.3 mm 4 mps 747 mmHg 92%
12:00 +14°C° 0.3 mm 4 mps 747 mmHg 88%
13:00 +14°C° 0.3 mm 4 mps 747 mmHg 85%
14:00 +14°C° 0 mm 3 mps 748 mmHg 85%
15:00 +13°C° 0 mm 3 mps 748 mmHg 86%
16:00 +14°C° 0 mm 2 mps 748 mmHg 86%
17:00 +12°C° 0 mm 3 mps 749 mmHg 88%
18:00 +12°C° 0 mm 3 mps 749 mmHg 89%
19:00 +11°C° 0 mm 3 mps 750 mmHg 90%
20:00 +11°C° 0 mm 3 mps 750 mmHg 91%
21:00 +10°C° 0 mm 3 mps 751 mmHg 92%
22:00 +10°C° 0 mm 2 mps 751 mmHg 93%
23:00 +9°C° 0 mm 2 mps 751 mmHg 93%

, 25 October, Sunday

Time Temperature Precipitation Wind Pressure Humidity
00:00 +9°C° 0 mm 2 mps 751 mmHg 93%
01:00 +8°C° 0 mm 2 mps 751 mmHg 93%
02:00 +8°C° 0 mm 2 mps 751 mmHg 93%
03:00 +8°C° 0 mm 2 mps 751 mmHg 92%
04:00 +8°C° 0 mm 2 mps 751 mmHg 92%
05:00 +8°C° 0 mm 2 mps 751 mmHg 91%
06:00 +9°C° 0 mm 2 mps 752 mmHg 90%
07:00 +9°C° 0 mm 2 mps 752 mmHg 89%
08:00 +10°C° 0 mm 2 mps 752 mmHg 85%
09:00 +12°C° 0 mm 2 mps 752 mmHg 81%
10:00 +13°C° 0 mm 2 mps 752 mmHg 77%
11:00 +14°C° 0 mm 2 mps 752 mmHg 73%
12:00 +15°C° 0 mm 2 mps 751 mmHg 69%
13:00 +16°C° 0 mm 2 mps 751 mmHg 65%
14:00 +15°C° 0 mm 2 mps 751 mmHg 69%
15:00 +15°C° 0 mm 2 mps 751 mmHg 72%
16:00 +14°C° 0 mm 2 mps 750 mmHg 76%
17:00 +12°C° 0 mm 3 mps 751 mmHg 78%
18:00 +11°C° 0 mm 3 mps 751 mmHg 81%
19:00 +10°C° 0 mm 3 mps 751 mmHg 83%
20:00 +10°C° 0 mm 3 mps 751 mmHg 85%
21:00 +10°C° 0 mm 3 mps 750 mmHg 87%
22:00 +9°C° 0 mm 3 mps 750 mmHg 89%
23:00 +9°C° 0 mm 3 mps 750 mmHg 90%

25 October, Sunday

Time Temperature Precipitation Wind Pressure Humidity
00:00 +9°C° 0 mm 2 mps 751 mmHg 93%
01:00 +8°C° 0 mm 2 mps 751 mmHg 93%
02:00 +8°C° 0 mm 2 mps 751 mmHg 93%
03:00 +8°C° 0 mm 2 mps 751 mmHg 92%
04:00 +8°C° 0 mm 2 mps 751 mmHg 92%
05:00 +8°C° 0 mm 2 mps 751 mmHg 91%
06:00 +9°C° 0 mm 2 mps 752 mmHg 90%
07:00 +9°C° 0 mm 2 mps 752 mmHg 89%
08:00 +10°C° 0 mm 2 mps 752 mmHg 85%
09:00 +12°C° 0 mm 2 mps 752 mmHg 81%
10:00 +13°C° 0 mm 2 mps 752 mmHg 77%
11:00 +14°C° 0 mm 2 mps 752 mmHg 73%
12:00 +15°C° 0 mm 2 mps 751 mmHg 69%
13:00 +16°C° 0 mm 2 mps 751 mmHg 65%
14:00 +15°C° 0 mm 2 mps 751 mmHg 69%
15:00 +15°C° 0 mm 2 mps 751 mmHg 72%
16:00 +14°C° 0 mm 2 mps 750 mmHg 76%
17:00 +12°C° 0 mm 3 mps 751 mmHg 78%
18:00 +11°C° 0 mm 3 mps 751 mmHg 81%
19:00 +10°C° 0 mm 3 mps 751 mmHg 83%
20:00 +10°C° 0 mm 3 mps 751 mmHg 85%
21:00 +10°C° 0 mm 3 mps 750 mmHg 87%
22:00 +9°C° 0 mm 3 mps 750 mmHg 89%
23:00 +9°C° 0 mm 3 mps 750 mmHg 90%

26 October, Monday

Time Temperature Precipitation Wind Pressure Humidity
00:00 +9°C° 0 mm 3 mps 750 mmHg 91%
01:00 +8°C° 0 mm 3 mps 750 mmHg 92%
02:00 +8°C° 0 mm 3 mps 749 mmHg 93%
03:00 +7°C° 0 mm 4 mps 749 mmHg 93%
04:00 +7°C° 0 mm 4 mps 749 mmHg 93%
05:00 +7°C° 0 mm 4 mps 748 mmHg 93%
06:00 +7°C° 0 mm 4 mps 748 mmHg 93%
07:00 +7°C° 0 mm 5 mps 748 mmHg 93%
08:00 +9°C° 0 mm 5 mps 748 mmHg 88%
09:00 +10°C° 0 mm 5 mps 747 mmHg 82%
10:00 +13°C° 0 mm 6 mps 747 mmHg 76%
11:00 +13°C° 0 mm 6 mps 747 mmHg 75%
12:00 +13°C° 0 mm 6 mps 746 mmHg 73%
13:00 +14°C° 0 mm 6 mps 746 mmHg 72%
14:00 +13°C° 0 mm 6 mps 746 mmHg 75%
15:00 +13°C° 0 mm 5 mps 745 mmHg 79%
16:00 +12°C° 0 mm 5 mps 745 mmHg 82%
17:00 +12°C° 0 mm 5 mps 745 mmHg 83%
18:00 +12°C° 0 mm 5 mps 745 mmHg 85%
19:00 +10°C° 0 mm 5 mps 745 mmHg 86%
20:00 +10°C° 0 mm 5 mps 745 mmHg 87%
21:00 +10°C° 0 mm 5 mps 745 mmHg 88%
22:00 +10°C° 0 mm 5 mps 745 mmHg 89%
23:00 +11°C° 0 mm 4 mps 745 mmHg 90%

27 October, Tuesday

Time Temperature Precipitation Wind Pressure Humidity
00:00 +10°C° 0 mm 4 mps 745 mmHg 91%
01:00 +10°C° 0 mm 4 mps 745 mmHg 92%
02:00 +10°C° 0 mm 4 mps 745 mmHg 91%
03:00 +10°C° 0 mm 4 mps 745 mmHg 91%
04:00 +10°C° 0 mm 4 mps 745 mmHg 91%
05:00 +10°C° 0 mm 4 mps 745 mmHg 91%
06:00 +10°C° 0 mm 4 mps 745 mmHg 91%
07:00 +10°C° 0 mm 4 mps 746 mmHg 91%
08:00 +12°C° 0 mm 4 mps 746 mmHg 86%
09:00 +13°C° 0 mm 4 mps 746 mmHg 80%
10:00 +15°C° 0 mm 5 mps 746 mmHg 75%
11:00 +15°C° 0 mm 5 mps 746 mmHg 73%
12:00 +17°C° 0 mm 4 mps 746 mmHg 71%
13:00 +18°C° 0 mm 4 mps 747 mmHg 69%
14:00 +17°C° 0 mm 4 mps 747 mmHg 72%
15:00 +16°C° 0 mm 3 mps 747 mmHg 76%
16:00 +14°C° 0 mm 3 mps 747 mmHg 79%
17:00 +14°C° 0 mm 3 mps 747 mmHg 81%
18:00 +13°C° 0 mm 3 mps 747 mmHg 83%
19:00 +12°C° 0 mm 3 mps 747 mmHg 86%
20:00 +13°C° 0 mm 2 mps 747 mmHg 86%
21:00 +13°C° 0 mm 2 mps 748 mmHg 86%
22:00 +13°C° 0 mm 2 mps 748 mmHg 87%
23:00 +12°C° 0 mm 2 mps 748 mmHg 88%
Show more